KB6LA Weather Reports


Display with metric or nautical units.
time (UTC)temp
F
wind
direction
speed
MPH
gust
MPH
rain 1hr
in
rain 24hr
in
rain mn
in
humidity
%
barometer
mb
20260905133717 64 1 1.0 1.0 0.00 0.00 0.00 88 1012.1
20260905132520 64 358 2.0 2.0 0.00 0.00 0.00 89 1011.8
20260905131916 64 13 2.0 2.0 0.00 0.00 0.00 89 1011.8
20260905131317 64 3 1.0 2.0 0.00 0.00 0.00 88 1011.8
20260905130720 64 352 0.0 1.0 0.00 0.00 0.00 89 1011.8
20260905130119 64 338 1.0 1.0 0.00 0.00 0.00 88 1011.8
20260905125517 64 343 0.0 0.0 0.00 0.00 0.00 88 1011.8
20260905124920 64 340 0.0 1.0 0.00 0.00 0.00 88 1011.8
20260905124318 64 336 0.0 0.0 0.00 0.00 0.00 88 1011.8
20260905123718 64 335 1.0 1.0 0.00 0.00 0.00 88 1011.8
20260905123121 64 349 1.0 1.0 0.00 0.00 0.00 88 1011.8
20260905122523 64 354 2.0 2.0 0.00 0.00 0.00 88 1011.8
20260905121324 64 14 2.0 2.0 0.00 0.00 0.00 88 1011.8
20260905120716 64 340 0.0 1.0 0.00 0.00 0.00 88 1011.8
20260905120117 64 340 0.0 0.0 0.00 0.00 0.00 88 1011.8
20260905114919 64 344 1.0 2.0 0.00 0.00 0.00 88 1011.8
20260905114317 64 325 1.0 1.0 0.00 0.00 0.00 88 1011.8
20260905113720 63 336 1.0 1.0 0.00 0.00 0.00 88 1011.8
20260905113116 63 338 0.0 0.0 0.00 0.00 0.00 88 1011.8
20260905111923 64 336 0.0 1.0 0.00 0.00 0.00 87 1011.8
20260905111318 64 332 1.0 1.0 0.00 0.00 0.00 87 1012.1
20260905110717 63 330 1.0 1.0 0.00 0.00 0.00 87 1012.1
20260905110120 64 334 1.0 2.0 0.00 0.00 0.00 87 1012.1
20260905105518 64 335 0.0 0.0 0.00 0.00 0.00 87 1012.1
20260905104917 64 335 0.0 0.0 0.00 0.00 0.00 87 1012.1
20260905104319 64 335 0.0 0.0 0.00 0.00 0.00 87 1012.1
20260905103120 64 333 1.0 1.0 0.00 0.00 0.00 87 1012.1
20260905102520 64 338 0.0 0.0 0.00 0.00 0.00 87 1012.1
20260905101916 64 346 0.0 0.0 0.00 0.00 0.00 86 1012.1
20260905101316 65 345 0.0 0.0 0.00 0.00 0.00 86 1012.1
20260905100118 65 334 0.0 0.0 0.00 0.00 0.00 86 1012.1
20260905095517 65 359 3.0 3.0 0.00 0.00 0.00 86 1012.1
20260905094924 65 16 3.0 3.0 0.00 0.00 0.00 85 1012.1
20260905093718 65 17 2.0 3.0 0.00 0.00 0.00 85 1012.1
20260905093121 65 16 2.0 2.0 0.00 0.00 0.00 85 1012.1
20260905091320 65 338 1.0 2.0 0.00 0.00 0.00 84 1012.1
20260905090716 65 333 1.0 2.0 0.00 0.00 0.00 84 1012.1
20260905090117 65 336 0.0 1.0 0.00 0.00 0.00 83 1012.1
20260905085520 65 341 0.0 1.0 0.00 0.00 0.00 83 1012.1
20260905084917 65 343 1.0 1.0 0.00 0.00 0.00 83 1012.1
20260905083116 66 337 1.0 1.0 0.00 0.00 0.00 83 1012.4
20260905082518 66 331 1.0 1.0 0.00 0.00 0.00 83 1012.4
20260905081919 66 330 1.0 1.0 0.00 0.00 0.00 82 1012.4
20260905081319 66 339 1.0 1.0 0.00 0.00 0.00 83 1012.4
20260905080718 67 353 0.0 1.0 0.00 0.00 0.00 83 1012.4
20260905080121 67 8 1.0 1.0 0.00 0.00 0.00 83 1012.4
20260905074918 67 350 1.0 1.0 0.00 0.00 0.00 82 1012.4
20260905073718 67 17 3.0 3.0 0.00 0.00 0.00 81 1012.1
20260905073118 67 21 2.0 2.0 0.00 0.00 0.00 81 1012.4
20260905072524 67 359 1.0 1.0 0.00 0.00 0.00 81 1012.1
20260905071919 67 352 1.0 1.0 0.00 0.00 0.00 80 1012.1
20260905071319 67 5 1.0 2.0 0.00 0.00 0.00 79 1012.1
20260905070720 67 336 1.0 1.0 0.00 0.00 0.00 79 1012.4
20260905070119 68 0 2.0 2.0 0.00 0.00 0.00 80 1012.1
20260905065517 67 6 2.0 2.0 0.00 0.00 0.00 78 1012.1
20260905064924 67 354 1.0 1.0 0.00 0.00 0.00 78 1012.1
20260905064318 67 359 1.0 1.0 0.00 0.00 0.00 78 1011.8
20260905063121 67 347 1.0 1.0 0.00 0.00 0.00 79 1012.1
20260905062518 67 351 1.0 1.0 0.00 0.00 0.00 79 1012.1
20260905060719 67 336 0.0 1.0 0.00 0.00 0.00 79 1012.1
20260905060120 67 349 1.0 1.0 0.00 0.00 0.00 79 1011.8
20260905054923 67 34 3.0 3.0 0.00 0.00 0.00 79 1012.1
20260905054318 67 341 0.0 0.0 0.00 0.00 0.00 79 1011.8
20260905053721 68 322 1.0 1.0 0.00 0.00 0.00 80 1012.1
20260905051920 68 12 2.0 2.0 0.00 0.00 0.00 82 1012.1
20260905051320 68 0 2.0 2.0 0.00 0.00 0.00 82 1012.1
20260905050122 68 336 1.0 1.0 0.00 0.00 0.00 83 1012.1
20260905045519 68 9 2.0 2.0 0.00 0.00 0.00 84 1011.8
20260905044918 67 335 1.0 1.0 0.00 0.00 0.00 84 1011.8
20260905043122 68 299 0.0 1.0 0.00 0.00 0.00 86 1011.8
20260905042521 68 299 0.0 1.0 0.00 0.00 0.00 86 1011.8
20260905041918 68 299 0.0 0.0 0.00 0.00 0.00 86 1011.8
20260905041321 69 295 2.0 2.0 0.00 0.00 0.00 86 1011.4
20260905040119 69 228 0.0 0.0 0.00 0.00 0.00 86 1011.4
20260905035516 69 227 2.0 2.0 0.00 0.00 0.00 86 1011.8
20260905034922 69 275 1.0 1.0 0.00 0.00 0.00 86 1011.4
20260905034318 69 285 1.0 2.0 0.00 0.00 0.00 85 1011.4
20260905033716 69 244 1.0 1.0 0.00 0.00 0.00 85 1011.1
20260905033121 69 261 0.0 1.0 0.00 0.00 0.00 85 1011.4
20260905032518 69 266 0.0 1.0 0.00 0.00 0.00 85 1011.1
20260905031916 69 226 1.0 2.0 0.00 0.00 0.00 84 1011.1
20260905031322 69 242 1.0 2.0 0.00 0.00 0.00 84 1011.1
20260905030718 69 258 1.0 1.0 0.00 0.00 0.00 83 1010.7
20260905030122 69 248 2.0 3.0 0.00 0.00 0.00 83 1010.7
20260905024946 69 257 2.0 2.0 0.00 0.00 0.00 83 1010.7
20260905024318 69 247 4.0 6.0 0.00 0.00 0.00 83 1010.7
20260905023722 70 267 4.0 4.0 0.00 0.00 0.00 82 1010.7
20260905023119 70 260 4.0 4.0 0.00 0.00 0.00 82 1010.7
20260905022523 70 253 4.0 4.0 0.00 0.00 0.00 81 1010.7
20260905021920 70 255 3.0 3.0 0.00 0.00 0.00 80 1010.7
20260905021318 70 282 4.0 6.0 0.00 0.00 0.00 79 1011.1
20260905020719 71 274 4.0 6.0 0.00 0.00 0.00 78 1011.1
20260905020122 71 286 4.0 6.0 0.00 0.00 0.00 78 1011.1
20260905015144 71 257 3.0 10.0 0.00 0.00 0.00 77 1011.1
20260905014603 72 242 8.0 10.0 0.00 0.00 0.00 76 1011.1
20260905014104 71 259 2.0 8.0 0.00 0.00 0.00 77 1011.1
20260905013604 71 289 4.0 8.0 0.00 0.00 0.00 76 1011.1
20260905013103 72 259 3.0 9.0 0.00 0.00 0.00 76 1011.1
20260905012035 72 262 4.0 9.0 0.00 0.00 0.00 74 1011.1
20260905011003 72 205 6.0 11.0 0.00 0.00 0.00 75 1011.4
20260905010503 73 223 5.0 11.0 0.00 0.00 0.00 74 1011.4
20260905010003 73 295 2.0 11.0 0.00 0.00 0.00 74 1011.4
20260905004949 73 44 4.0 10.0 0.00 0.00 0.00 73 1011.4
20260905004449 73 237 5.0 10.0 0.00 0.00 0.00 74 1011.4
20260905003403 74 288 7.0 10.0 0.00 0.00 0.00 72 1011.4
20260905002903 73 239 4.0 11.0 0.00 0.00 0.00 73 1011.4
20260905002403 74 219 9.0 11.0 0.00 0.00 0.00 72 1011.4
20260905001903 73 244 4.0 13.0 0.00 0.00 0.00 73 1011.4
20260905001349 74 236 11.0 13.0 0.00 0.00 0.00 71 1011.4
20260905000849 74 261 5.0 11.0 0.00 0.00 0.00 72 1011.1
20260905000335 74 212 5.0 11.0 0.00 0.00 0.00 72 1011.1
20260904235823 74 225 9.0 11.0 0.00 0.00 0.00 71 1011.4
20260904235309 74 261 9.0 11.0 0.00 0.00 0.00 71 1011.4
20260904234756 74 260 8.0 14.0 0.00 0.00 0.00 71 1011.4
20260904234235 73 248 8.0 14.0 0.00 0.00 0.00 72 1011.4
20260904233730 73 182 5.0 13.0 0.00 0.00 0.00 72 1011.4
20260904233229 73 222 8.0 16.0 0.00 0.00 0.00 72 1011.4
20260904232703 74 232 13.0 16.0 0.00 0.00 0.00 70 1011.4
20260904232203 75 257 9.0 14.0 0.00 0.00 0.00 70 1011.4
20260904231705 75 230 8.0 11.0 0.00 0.00 0.00 69 1011.4
20260904231203 75 261 6.0 15.0 0.00 0.00 0.00 70 1011.4
20260904230703 75 241 5.0 15.0 0.00 0.00 0.00 70 1011.4
20260904230203 75 217 6.0 13.0 0.00 0.00 0.00 69 1011.4
20260904225155 74 225 6.0 13.0 0.00 0.00 0.00 70 1011.4
20260904224647 75 233 2.0 13.0 0.00 0.00 0.00 70 1011.8
20260904224148 74 273 8.0 11.0 0.00 0.00 0.00 70 1011.4
20260904223635 74 219 7.0 13.0 0.00 0.00 0.00 69 1011.8
20260904222558 75 221 9.0 13.0 0.00 0.00 0.00 67 1011.8
20260904222056 75 236 10.0 13.0 0.00 0.00 0.00 67 1011.8
20260904221048 75 215 6.0 13.0 0.00 0.00 0.00 69 1011.8
20260904220548 75 200 8.0 14.0 0.00 0.00 0.00 69 1011.8
20260904220034 75 256 7.0 14.0 0.00 0.00 0.00 68 1011.8
20260904215529 74 241 5.0 13.0 0.00 0.00 0.00 70 1011.8
20260904214957 75 201 9.0 13.0 0.00 0.00 0.00 70 1011.8
20260904214450 75 290 7.0 13.0 0.00 0.00 0.00 68 1011.8
20260904213936 76 221 9.0 13.0 0.00 0.00 0.00 68 1011.8
20260904213403 75 242 7.0 15.0 0.00 0.00 0.00 69 1011.8
20260904212903 75 223 7.0 15.0 0.00 0.00 0.00 69 1011.8
20260904211835 75 224 10.0 13.0 0.00 0.00 0.00 68 1012.1
20260904211304 75 222 5.0 11.0 0.00 0.00 0.00 68 1011.8
20260904210749 75 257 8.0 13.0 0.00 0.00 0.00 69 1012.1
20260904205733 75 236 6.0 11.0 0.00 0.00 0.00 67 1011.8
20260904205234 75 227 10.0 13.0 0.00 0.00 0.00 67 1011.8
20260904204704 75 176 6.0 13.0 0.00 0.00 0.00 67 1012.1
20260904204204 76 201 6.0 10.0 0.00 0.00 0.00 65 1011.8
20260904203705 76 212 6.0 11.0 0.00 0.00 0.00 65 1012.1
20260904202703 75 210 6.0 13.0 0.00 0.00 0.00 66 1012.1
20260904202154 74 185 2.0 13.0 0.00 0.00 0.00 67 1012.1
20260904201635 74 207 9.0 14.0 0.00 0.00 0.00 66 1012.1
20260904201104 75 221 13.0 14.0 0.00 0.00 0.00 64 1012.1
20260904200556 76 258 9.0 11.0 0.00 0.00 0.00 63 1012.1
20260904200056 76 208 8.0 11.0 0.00 0.00 0.00 62 1012.1
20260904195556 76 289 5.0 13.0 0.00 0.00 0.00 62 1012.1
20260904195049 77 234 10.0 13.0 0.00 0.00 0.00 61 1012.1
20260904194535 76 196 4.0 10.0 0.00 0.00 0.00 62 1012.4
20260904194036 75 216 8.0 10.0 0.00 0.00 0.00 62 1012.4
20260904193504 76 221 5.0 10.0 0.00 0.00 0.00 62 1012.4
20260904193003 75 225 6.0 11.0 0.00 0.00 0.00 64 1012.4
20260904192003 75 185 6.0 11.0 0.00 0.00 0.00 62 1012.4
20260904191450 75 206 9.0 11.0 0.00 0.00 0.00 63 1012.8
20260904190948 76 180 7.0 9.0 0.00 0.00 0.00 62 1012.8
20260904190435 76 270 2.0 9.0 0.00 0.00 0.00 62 1012.8
20260904185904 75 195 4.0 9.0 0.00 0.00 0.00 62 1012.8
20260904184904 75 217 4.0 8.0 0.00 0.00 0.00 63 1012.8
20260904184349 76 210 4.0 9.0 0.00 0.00 0.00 62 1012.8
20260904183830 75 150 2.0 9.0 0.00 0.00 0.00 64 1012.8
20260904183257 74 225 4.0 7.0 0.00 0.00 0.00 65 1012.8
20260904182229 74 288 4.0 8.0 0.00 0.00 0.00 66 1013.1
20260904181656 74 207 5.0 8.0 0.00 0.00 0.00 66 1013.1
20260904181155 73 307 2.0 8.0 0.00 0.00 0.00 68 1012.8
20260904180637 73 238 4.0 8.0 0.00 0.00 0.00 68 1013.1
20260904175636 73 200 6.0 8.0 0.00 0.00 0.00 69 1013.1
20260904175135 73 210 4.0 8.0 0.00 0.00 0.00 70 1013.1
20260904174103 74 161 4.0 6.0 0.00 0.00 0.00 67 1013.1
20260904173548 74 218 3.0 7.0 0.00 0.00 0.00 67 1013.1
20260904172002 74 279 5.0 9.0 0.00 0.00 0.00 68 1013.1
20260904171503 75 312 1.0 3.0 0.00 0.00 0.00 62 1012.8
20260904170936 74 192 2.0 6.0 0.00 0.00 0.00 63 1012.8
20260904170438 73 61 1.0 6.0 0.00 0.00 0.00 66 1012.8
20260904165935 73 180 2.0 6.0 0.00 0.00 0.00 66 1012.8
20260904165403 73 80 3.0 6.0 0.00 0.00 0.00 65 1012.8
20260904164904 74 137 4.0 4.0 0.00 0.00 0.00 64 1012.4
20260904164404 74 199 1.0 3.0 0.00 0.00 0.00 65 1012.4
20260904163335 73 247 2.0 4.0 0.00 0.00 0.00 67 1012.8
20260904162836 73 262 4.0 4.0 0.00 0.00 0.00 67 1012.4
20260904162336 73 180 3.0 4.0 0.00 0.00 0.00 67 1012.4
20260904161803 72 121 4.0 4.0 0.00 0.00 0.00 69 1012.4
20260904161305 71 248 1.0 3.0 0.00 0.00 0.00 74 1012.4
20260904160258 71 60 2.0 3.0 0.00 0.00 0.00 74 1012.4
20260904155757 70 266 1.0 4.0 0.00 0.00 0.00 77 1012.4
20260904155257 69 222 1.0 4.0 0.00 0.00 0.00 76 1012.4
20260904154256 69 289 1.0 4.0 0.00 0.00 0.00 77 1012.4
20260904153756 69 137 2.0 4.0 0.00 0.00 0.00 77 1012.4
20260904153240 69 167 2.0 4.0 0.00 0.00 0.00 77 1012.4
20260904152728 69 158 3.0 4.0 0.00 0.00 0.00 76 1012.4
20260904152204 69 7 1.0 4.0 0.00 0.00 0.00 78 1012.4
20260904151703 69 35 4.0 4.0 0.00 0.00 0.00 77 1012.4
20260904151203 69 35 2.0 3.0 0.00 0.00 0.00 77 1012.4
20260904145702 70 9 0.0 3.0 0.00 0.00 0.00 77 1012.4
20260904145201 69 346 0.0 3.0 0.00 0.00 0.00 79 1012.1
20260904144701 68 1 1.0 2.0 0.00 0.00 0.00 81 1012.1
20260904144157 67 21 1.0 3.0 0.00 0.00 0.00 83 1012.1
20260904143657 66 25 1.0 3.0 0.00 0.00 0.00 83 1012.1
20260904143157 66 341 1.0 1.0 0.00 0.00 0.00 84 1012.1
20260904142649 66 330 1.0 1.0 0.00 0.00 0.00 84 1011.8
20260904142136 65 331 1.0 2.0 0.00 0.00 0.00 84 1011.8
20260904141604 65 330 1.0 2.0 0.00 0.00 0.00 84 1011.8
20260904141057 65 347 1.0 2.0 0.00 0.00 0.00 85 1011.8
20260904140557 65 359 2.0 2.0 0.00 0.00 0.00 85 1011.8
20260904135536 65 8 2.0 2.0 0.00 0.00 0.00 85 1011.8
20260904135029 65 356 1.0 3.0 0.00 0.00 0.00 85 1011.8
20260904134529 65 343 1.0 2.0 0.00 0.00 0.00 85 1011.8
20260904133957 65 334 0.0 1.0 0.00 0.00 0.00 85 1011.4